Weather History for Harrison, AR

Change the Weather History Date:

Saturday, March 2, 2013

  Actual Average Record
Temperature  
Mean Temperature 29 °F 44 °F  
Max Temperature 36 °F 55 °F 84 °F (1901)
Min Temperature 22 °F 34 °F 4 °F (1980)
Degree Days  
Heating Degree Days 36 21  
Month to date heating degree days 72 42  
Since 1 July heating degree days 2976 3214  
Cooling Degree Days 0 0  
Month to date cooling degree days 0 0  
Year to date cooling degree days 1 0  
Moisture  
Dew Point 20 °F    
Average Humidity 66    
Maximum Humidity 84    
Minimum Humidity 47    
Precipitation  
Precipitation T in 0.10 in 1.07 in (1988)
Month to date precipitation T 0.20  
Year to date precipitation 6.62 5.40  
Snow  
Snow T in 0.10 in 2.00 in (1971)
Month to date snowfall 0.3 0.2  
Since 1 July snowfall 3.1 9.4  
Snow Depth 0.00 in    
Sea Level Pressure  
Sea Level Pressure 30.25 in    
Wind  
Wind Speed 8 mph (NW)    
Max Wind Speed 15 mph    
Max Gust Speed 22 mph    
Visibility 9 miles    
Events Snow    
T = Trace of Precipitation, MM = Missing Value Source: NWS Daily Summary

Daily Weather History Graph

Daily Weather History Graph

Search for Another Location

Airport:

Trip Planner

Search our weather history database for the weather conditions in past years. The results will help you decide how hot, cold, wet, or windy it might be!

Date:

Astronomy

Mar. 02, 2013 Rise Set
Actual Time 6:41 AM CST 6:08 PM CST
Civil Twilight 6:15 AM CST 6:34 PM CST
Nautical Twilight 5:45 AM CST 7:04 PM CST
Astronomical Twilight 5:15 AM CST 7:34 PM CST
Moon 11:37 PM CST (3/2) 9:20 AM CST (3/2)
Length of Visible Light 12h 18m
Length of Day
11h 27m
Waning Gibbous, 74% of the Moon is Illuminated
Mar 2
Waning Gibbous
Mar 4
Last Quarter
Mar 11
New
Mar 19
First Quarter
Mar 27
Full

Hourly Weather History & Observations

Time (CST) Temp. Windchill Dew Point Humidity Pressure Visibility Wind Dir Wind Speed Gust Speed Precip Events Conditions
12:43 AM 26.6 °F 18.2 °F 23.0 °F 86% 30.21 in 4.0 mi NW 8.1 mph - 0.00 in Snow Light Snow
12:53 AM 26.1 °F 17.6 °F 23.0 °F 88% 30.25 in 4.0 mi NW 8.1 mph - 0.00 in Snow Light Snow
1:05 AM 26.6 °F 19.1 °F 23.0 °F 86% 30.21 in 4.0 mi NW 6.9 mph - 0.00 in Snow Light Snow
1:43 AM 26.6 °F 20.0 °F 23.0 °F 86% 30.21 in 7.0 mi NW 5.8 mph - 0.00 in   Overcast
1:53 AM 27.0 °F 21.6 °F 23.0 °F 85% 30.25 in 6.0 mi NW 4.6 mph - 0.00 in Snow Light Snow
2:05 AM 26.6 °F 19.1 °F 23.0 °F 86% 30.21 in 6.0 mi NW 6.9 mph - 0.00 in Snow Light Snow
2:53 AM 27.0 °F 19.5 °F 23.0 °F 85% 30.24 in 5.0 mi NW 6.9 mph - 0.00 in Snow Light Snow
3:53 AM 27.0 °F 18.7 °F 23.0 °F 85% 30.23 in 7.0 mi NW 8.1 mph - 0.00 in   Overcast
4:04 AM 26.6 °F 20.0 °F 23.0 °F 86% 30.19 in 7.0 mi NW 5.8 mph - 0.00 in Snow Light Snow
4:35 AM 26.6 °F 19.1 °F 21.2 °F 80% 30.20 in 9.0 mi NW 6.9 mph - 0.00 in   Overcast
4:50 AM 26.6 °F 18.2 °F 21.2 °F 80% 30.20 in 10.0 mi NW 8.1 mph - 0.00 in   Overcast
4:53 AM 26.6 °F 17.5 °F 21.2 °F 80% 30.20 in 10.0 mi NW 9.2 mph - N/A   Overcast
5:23 AM 26.6 °F 18.2 °F 21.2 °F 80% 30.21 in 9.0 mi NW 8.1 mph - N/A   Overcast
5:53 AM 27.0 °F 17.3 °F 21.0 °F 78% 30.25 in 10.0 mi NW 10.4 mph - N/A   Overcast
6:53 AM 26.1 °F 15.6 °F 18.0 °F 71% 30.28 in 10.0 mi NW 11.5 mph 18.4 mph N/A   Overcast
7:53 AM 25.0 °F 14.8 °F 17.1 °F 72% 30.30 in 10.0 mi North 10.4 mph - N/A   Overcast
8:53 AM 26.1 °F 15.0 °F 18.0 °F 71% 30.31 in 10.0 mi NNW 12.7 mph - N/A   Overcast
9:53 AM 26.1 °F 15.6 °F 18.0 °F 71% 30.32 in 10.0 mi NNW 11.5 mph - N/A   Overcast
10:53 AM 27.0 °F 16.7 °F 18.0 °F 69% 30.32 in 10.0 mi NW 11.5 mph - N/A   Overcast
11:53 AM 28.0 °F 18.1 °F 18.0 °F 66% 30.32 in 10.0 mi NNW 11.5 mph 18.4 mph N/A   Overcast
12:53 PM 28.9 °F 19.2 °F 18.0 °F 64% 30.30 in 10.0 mi NW 11.5 mph 17.3 mph N/A   Overcast
1:53 PM 30.9 °F 24.3 °F 18.0 °F 59% 30.27 in 10.0 mi NW 6.9 mph - N/A   Mostly Cloudy
2:23 PM 32.0 °F 23.6 °F 17.6 °F 55% 30.23 in 10.0 mi WNW 10.4 mph - N/A   Scattered Clouds
2:53 PM 34.0 °F 26.0 °F 18.0 °F 52% 30.26 in 10.0 mi NW 10.4 mph 17.3 mph N/A   Partly Cloudy
3:53 PM 35.1 °F 26.4 °F 17.1 °F 48% 30.25 in 10.0 mi NW 12.7 mph - N/A   Clear
4:53 PM 35.1 °F 27.9 °F 18.0 °F 50% 30.26 in 10.0 mi NNW 9.2 mph - N/A   Clear
5:53 PM 32.0 °F 24.8 °F 17.1 °F 54% 30.26 in 10.0 mi WNW 8.1 mph - N/A   Clear
6:53 PM 28.4 °F 23.3 °F 17.6 °F 64% 30.23 in 10.0 mi NW 4.6 mph - N/A   Clear
7:53 PM 27.0 °F 21.6 °F 17.1 °F 66% 30.28 in 9.0 mi WNW 4.6 mph - N/A   Clear
8:53 PM 26.1 °F - 17.1 °F 69% 30.27 in 10.0 mi Calm Calm - N/A   Clear
9:53 PM 25.0 °F 20.7 °F 17.1 °F 72% 30.27 in 10.0 mi West 3.5 mph - N/A   Clear
10:53 PM 26.1 °F 21.9 °F 17.1 °F 69% 30.26 in 10.0 mi West 3.5 mph - N/A   Clear
11:53 PM 25.0 °F - 17.1 °F 72% 30.24 in 10.0 mi Calm Calm - N/A   Clear